Lid_Strength_Index
8 8 7 7 7 7 7 8 8 9 9 10 10 9 8 8 8 8 8 8 9 9 9 10 10 10 11 12 13 14 15 15 15 18 17 17 17 17 17 16 16 16 16
8 8 8 8 8 8 8 8 9 9 10 10 12 12 12 9 9 9 9 9 10 10 10 11 11 10 12 12 13 14 14 15 17 19 19 18 18 17 17 17 18 17 17
8 8 9 9 9 9 9 9 10 10 11 12 13 13 14 13 12 11 10 10 10 10 10 11 11 13 13 13 14 14 15 16 17 17 19 18 19 17 18 18 18 17 17
9 9 10 10 9 9 10 10 11 11 12 13 14 14 14 15 15 14 13 12 12 12 12 12 12 13 13 14 15 15 15 16 16 17 19 19 19 18 18 18 18 17 17
10 10 9 10 10 10 11 12 12 13 13 13 14 15 15 15 15 14 14 13 13 13 14 13 13 13 13 13 14 15 15 16 17 18 19 19 19 19 18 18 18 17 17
11 10 11 11 12 12 12 12 13 13 14 14 15 15 16 15 13 12 13 14 14 14 14 14 14 14 13 12 12 13 14 16 17 17 18 18 18 18 17 17 18 18 19
13 13 13 13 13 12 13 13 13 14 15 15 15 16 16 16 13 12 12 13 13 14 14 14 15 15 14 14 12 12 13 13 13 16 17 17 17 16 16 17 17 17 17
14 14 14 14 14 13 13 13 14 15 15 16 16 16 16 16 13 12 12 13 13 13 13 14 14 15 14 13 14 14 15 14 15 14 14 15 14 15 15 15 15 15 16
14 14 15 15 15 15 16 16 17 17 18 18 17 18 16 15 13 12 12 13 14 14 14 14 14 14 13 12 14 15 15 15 13 11 12 12 12 12 13 14 16 17 19
15 15 15 15 17 17 16 17 18 19 16 16 16 15 14 14 13 12 12 14 15 15 14 14 14 14 12 11 15 15 16 15 14 14 13 12 11 12 11 13 14 16 17
16 16 16 17 18 18 18 18 20 19 18 18 15 15 15 14 14 11 10 13 14 15 15 15 14 12 11 11 13 14 14 13 13 14 14 14 14 13 13 12 12 13 15
17 18 17 17 17 17 19 21 21 21 20 16 16 16 15 15 13 11 10 11 12 14 15 14 14 12 12 11 13 12 11 11 13 15 15 15 15 14 13 12 12 11 11
19 19 16 19 18 19 20 21 20 22 20 21 17 16 16 16 14 12 11 10 11 13 13 13 12 11 11 10 10 10 12 13 14 15 16 15 14 13 13 14 13 13 12
15 16 16 19 20 20 19 18 21 22 22 20 21 17 17 17 16 15 13 11 11 12 12 13 12 11 11 11 12 10 11 12 13 14 15 14 14 14 14 14 14 14 15
13 14 14 14 14 15 15 16 16 16 15 18 18 18 17 18 16 14 14 12 11 14 16 16 14 14 14 13 13 13 12 11 11 11 12 13 13 14 13 14 15 15 16
13 14 14 14 15 14 15 14 11 11 11 12 12 14 15 13 12 12 12 11 10 11 15 17 16 14 14 13 13 13 12 12 12 11 11 12 14 14 13 14 15 17 16
16 16 16 15 15 14 14 13 14 12 10 10 10 11 11 11 11 11 11 10 9 10 16 15 16 15 14 14 13 13 14 13 14 13 13 13 14 14 14 15 15 16 18
18 14 16 14 12 12 13 14 13 14 15 15 12 11 10 10 10 10 10 10 11 10 14 14 15 14 14 14 15 15 16 15 16 18 18 16 13 16 17 16 15 18 18
14 13 14 12 12 12 13 14 14 14 15 16 16 15 16 12 13 12 10 15 15 15 16 17 18 19 19 20 18 18 20 21 22 23 22 20 18 19 20 18 17 17 18
15 12 12 12 12 13 14 14 14 15 16 18 19 20 19 19 20 22 21 19 17 18 19 20 21 25 23 24 24 24 24 24 24 23 22 21 20 19 19 20 18 19 20
16 15 14 16 15 15 15 15 15 17 18 19 20 18 15 20 22 22 23 24 24 24 25 25 27 29 30 30 29 28 28 26 27 26 25 23 21 22 21 19 20 21 21
16 17 18 16 16 17 18 18 18 18 20 20 21 20 17 22 23 24 25 27 31 31 31 29 29 31 31 30 30 30 29 29 28 26 24 24 23 22 22 22 23 21 22
19 19 18 18 18 18 19 19 19 20 21 22 22 23 23 24 25 25 29 31 31 30 31 32 32 31 34 35 34 31 29 29 27 25 26 26 25 24 24 24 23 24 23
18 18 19 19 19 19 19 20 20 21 22 23 24 24 24 25 26 29 29 29 30 30 33 35 35 34 35 35 37 37 36 35 35 33 31 30 29 26 26 25 23 23 23
20 20 20 20 20 21 21 22 23 23 23 22 24 24 26 26 26 28 30 33 33 34 32 34 36 36 36 35 35 36 35 27 32 32 35 33 32 32 31 29 26 25 23
21 21 21 22 22 22 22 22 23 23 24 25 26 27 27 26 29 32 32 31 29 30 31 34 36 35 35 34 33 30 29 24 27 28 34 34 33 31 30 28 25 25 24